Powrót do katalogu

SL-12 R/B(2)

AktywnyGEO
NORAD 15139·ROCKET BODY·🇷🇺 Russia

Wystrzelony Mar 16, 1984 z Baikonur Cosmodrome

Loading…

TLE

ŚwieżeSource: Space-Track

Epoka: Sep 14, 2026, 16:36 UTC

1 15139U 84028F   26257.69218822 -.00000111  00000-0  00000-0 0  9995
2 15139   6.7999 300.5083 0018352  53.7458 119.3878  1.01430443125365

Śledź SL-12 R/B(2) w czasie rzeczywistym z AllMySat

Download on the App Store